KD8CJ Weather Reports


time (UTC)temp
C
wind
direction
speed
KPH
gust
KPH
rain 1hr
cm
rain 24hr
cm
rain mn
cm
humidity
%
barometer
mb
20260504014505 11 253 1.6 8.0 0.00 0.00 0.00 53 1013.3
20260504013008 11 238 1.6 11.3 0.00 0.00 0.00 51 1013.1
20260504011504 12 335 1.6 6.4 0.00 0.00 0.00 48 1013.0
20260504010008 12 258 4.8 12.9 0.00 0.00 0.00 45 1012.7
20260504004510 12 261 0.0 6.4 0.00 0.00 0.00 45 1012.4
20260504003004 12 96 0.0 4.8 0.00 0.00 0.00 44 1012.4
20260504001504 12 273 1.6 6.4 0.00 0.00 0.00 43 1012.5
20260504000007 13 240 0.0 14.5 0.00 0.00 0.00 42 1012.5
20260503234505 13 282 3.2 11.3 0.00 0.00 0.00 41 1012.6
20260503233007 13 274 1.6 8.0 0.00 0.00 0.00 42 1012.7
20260503231504 13 253 1.6 8.0 0.00 0.00 0.00 39 1012.8
20260503230006 14 248 6.4 16.1 0.00 0.00 0.00 40 1012.9
20260503224507 14 276 3.2 8.0 0.00 0.00 0.00 39 1012.9
20260503223004 14 167 3.2 16.1 0.00 0.00 0.00 38 1013.1
20260503221506 15 266 3.2 9.7 0.00 0.00 0.00 37 1013.2
20260503220007 15 1 3.2 12.9 0.00 0.00 0.00 36 1013.2
20260503214503 15 282 1.6 16.1 0.00 0.00 0.00 39 1013.2
20260503213018 15 239 3.2 19.3 0.00 0.00 0.00 37 1013.2
20260503211514 15 156 3.2 14.5 0.00 0.00 0.00 35 1013.3
20260503210009 15 292 3.2 12.9 0.00 0.00 0.00 38 1013.1
20260503204508 15 285 4.8 14.5 0.00 0.00 0.00 37 1013.2
20260503203008 16 245 4.8 16.1 0.00 0.00 0.00 35 1013.2
20260503201524 16 215 3.2 12.9 0.00 0.00 0.00 34 1013.4
20260503200007 16 208 4.8 12.9 0.00 0.00 0.00 36 1013.6
20260503194510 16 158 4.8 14.5 0.00 0.00 0.00 37 1013.9
20260503193008 16 264 3.2 16.1 0.00 0.00 0.00 40 1014.2
20260503191509 15 120 4.8 14.5 0.00 0.00 0.00 37 1014.5
20260503190017 16 255 1.6 14.5 0.00 0.00 0.00 37 1014.6
20260503184512 15 323 4.8 11.3 0.00 0.00 0.00 37 1014.9
20260503183017 15 158 4.8 16.1 0.00 0.00 0.00 38 1015.1
20260503181524 15 173 4.8 14.5 0.00 0.00 0.00 38 1015.2
20260503180008 15 251 6.4 20.9 0.00 0.00 0.00 38 1015.3
20260503174511 15 295 3.2 16.1 0.00 0.00 0.00 35 1015.4
20260503173035 16 133 1.6 8.0 0.00 0.00 0.00 38 1015.4
20260503171513 16 6 4.8 11.3 0.00 0.00 0.00 35 1015.7
20260503081517 0 257 0.0 0.0 0.00 0.05 0.00 93 1016.1
20260503071516 0 257 0.0 0.0 0.00 0.05 0.00 92 1016.1
20260503054521 3 257 0.0 1.6 0.00 0.05 0.00 87 1016.3
20260503053031 3 257 0.0 1.6 0.00 0.05 0.00 87 1016.4
20260503051523 3 257 0.0 1.6 0.00 0.05 0.00 87 1016.5
20260503050030 3 257 0.0 1.6 0.00 0.05 0.00 87 1016.5
20260503044522 3 257 0.0 1.6 0.00 0.05 0.00 88 1016.4
20260503043016 3 257 0.0 1.6 0.00 0.05 0.00 88 1016.5
20260503041522 3 257 0.0 0.0 0.00 0.05 0.00 89 1016.5
20260503040025 3 257 0.0 0.0 0.00 0.05 0.00 89 1016.7
20260503034529 3 257 0.0 0.0 0.00 0.05 0.05 89 1016.7
20260503033015 3 257 0.0 0.0 0.00 0.05 0.05 88 1016.7
20260503031519 3 257 0.0 1.6 0.00 0.05 0.05 88 1016.7
20260503030021 3 257 0.0 0.0 0.00 0.05 0.05 88 1016.7
20260503024526 3 257 0.0 0.0 0.00 0.05 0.05 88 1016.9
20260503023027 3 257 0.0 0.0 0.00 0.05 0.05 87 1017.1
20260503021519 3 257 0.0 0.0 0.00 0.05 0.05 85 1017.0
20260503020032 3 257 0.0 0.0 0.00 0.05 0.05 84 1017.0